Погода в Новом Никулино

Россия / Ульяновская область     54°26′24″N   47°41′08″E
темп.,
°C
ветер,
м/с
пор.,
м/с
влажн.,
%
обл.,
%
осадки,
мм/ч
давл.,
гПа
погр.,
м
16 июня, ср
ср1601:00+16в399513 0.0 1009168
04:00+16в389343 0.0 1008155
07:00+18вюв378457 0.1 1007175
10:00+24юв35625 0.1 1006494
13:00+26ю34601 0.0 10061166
16:00+26юз336124 0.3 10061332
19:00+24зсз477859 2.1 1006241
22:00+19зсз612945 2.9 1008290
17 июня, чт
чт1701:00+17ссз6139457 0.6 1010537
04:00+15ссз613929 0.6 1013422
07:00+15ссз612861 0.0 1014477
10:00+19с69591 0.0 1016984
13:00+21с68520 0.0 10171743
16:00+21с68500 0.0 10181863
19:00+19ссз59640 0.0 1019534
22:00+14сз411713 0.0 1021240
18 июня, пт
пт1801:00+15с510642 0.0 1022398
04:00+11с410754 0.0 1024208
07:00+13с49712 0.0 1026348
10:00+16с68534 0.0 10271167
13:00+19с674954 0.0 10271500
16:00+19с45500 0.0 10261396
19:00+18ссв246435 0.0 1026378
22:00+14зсз116899 0.0 102710
19 июня, сб
сб1901:00+13зюз327364 0.0 102722
04:00+12зюз337817 0.0 102836
07:00+15з36780 0.0 1028184
10:00+20з5667100 0.0 1027511
13:00+23з566064 0.0 10261103
16:00+25зсз575911 0.0 10251455
19:00+24зсз48725 0.0 1024381
22:00+19з46875 0.0 102486
20 июня, вс
вс2001:00+18з47890 0.0 1025118
04:00+17зсз47920 0.0 1025110
07:00+19зсз46840 0.0 1025196
10:00+24зсз45700 0.0 1025583
13:00+27зсз45592 0.0 10241522
16:00+28зсз445324 0.0 10231675
19:00+25зсз367295 0.0 1023208
22:00+21сз22850 0.0 102421